Regional Weather Roundup
Issued by NWS

Home | Current Version | Previous Version | Graphics & Text | Print | Product List | Glossary On
Versions: 1 2 3 4 5 6 7 8 9 10 11 12 13 14 15 16 17 18 19 20 21 22 23 24 25 26 27 28 29 30 31 32 33 34 35 36 37 38 39 40 41 42 43 44 45 46 47 48 49 50
035
ASUS43 KLOT 201108
RWRIL

ILLINOIS REGIONAL WEATHER ROUNDUP
NATIONAL WEATHER SERVICE CHICAGO/ROMEOVILLE IL
500 AM CST TUE FEB 20 2018

NOTE: "FAIR" INDICATES FEW OR NO CLOUDS BELOW 12,000 FEET WITH NO
SIGNIFICANT WEATHER AND/OR OBSTRUCTIONS TO VISIBILITY.

* THESE STATIONS ARE NOT UNDER NWS QUALITY CONTROL. THEY ALSO MAY NOT
  REPORT WEATHER SUCH AS PRECIPITATION OR FOG.

ILZ001-002-007-009-015-016-024-201200-
NORTHWEST ILLINOIS

CITY           SKY/WX    TMP DP  RH WIND       PRES   REMARKS
MOLINE         LGT RAIN  41  39  93 CALM      29.79R FOG
STERLING*        N/A    N/A N/A N/A MISG        N/A
SAVANNA*       LGT RAIN  37  37  99 SW3       29.80R VSB 1
$$

ILZ003-004-008-010-011-017-018-201200-
NORTH CENTRAL ILLINOIS

CITY           SKY/WX    TMP DP  RH WIND       PRES   REMARKS
ROCKFORD       LGT RAIN  42  41  96 S7        29.80R FOG
FREEPORT*      RAIN      38  38 100 S10       29.79S WCI  32
ROCHELLE*      LGT RAIN  40  40 100 CALM      29.81R
DE KALB*       LGT RAIN  44  44 100 S7        29.81R VSB 1/2
PERU*          HVY RAIN  47  46  99 W8        29.84R
$$

ILZ005-006-012>014-019>023-201200-
NORTHEAST ILLINOIS

CITY           SKY/WX    TMP DP  RH WIND       PRES   REMARKS
CHICAGO-OHARE  HVY RAIN  59  56  89 S22G28    29.81S
CHICAGO-MIDWAY HVY RAIN  59  58  96 SW13      29.85R FOG
AURORA         LGT RAIN  55  55 100 S13       29.80S FOG
LANSING*       LGT RAIN  57  57 100 S8        29.86S
JOLIET*        LGT RAIN  59  59 100 S5        29.82F
WAUKEGAN       CLOUDY    57  57 100 S13       29.76F
DUPAGE AIRPORT CLOUDY    56  56 100 S13       29.80F FOG
KANKAKEE*      LGT RAIN  59  58  97 S16G25    29.87R
WHEELING       LGT RAIN  60  58  92 S15       29.81R
MORRIS*        HVY RAIN  57  56  96 S10       29.81R
ROMEOVILLE*    RAIN      57  57  98 SW9       29.82F
NORTHERLY ISL    N/A     59  56  89 S15         N/A
$$

LMZ740>746-201200-
SOUTHERN LAKE MICHIGAN

STATION/POSITION SKY/WX   TEMP    WIND        PRES    VSBY  WAVE
                          AIR SEA DIR/SP/G                  HT/PER
                          (F)     (DEG/KT/KT) (MB)    (MI)  (FT/S)
HARRISON CRIB              60     210/ 23/ 26   N/A
BURNHAM HARBOR             59     190/  9/ 16   N/A
CALUMET HARBOR             58     190/  8/ 16 1009.8F
BURNS HARBOR               59     220/ 14/ 19 1011.5R
MICHIGAN CITY              61     190/ 22/ 27   N/A
$$

ILZ025>027-034>036-040-047-049-050-058-095>099-201200-
WEST-CENTRAL ILLINOIS

CITY           SKY/WX    TMP DP  RH WIND       PRES   REMARKS
QUINCY         CLOUDY    51  50  96 CALM      29.79S
GALESBURG*     DRIZZLE   44  44 100 CALM      29.80S
MACOMB*        CLOUDY    44  44 100 CALM      29.82S FOG
JACKSONVILLE*  CLOUDY    62  58  88 S13       29.82R
PITTSFIELD*    CLOUDY    63  60  88 S13       29.82R
$$

ILZ028>032-037-038-041>044-048-051>054-059>061-201200-
CENTRAL ILLINOIS

CITY           SKY/WX    TMP DP  RH WIND       PRES   REMARKS
PONTIAC        RAIN      61  61  98 S25G32    29.85R
BLOOMINGTON    RAIN      60  58  92 S22       29.86R
DECATUR        LGT RAIN  64  57  78 SW20G28   29.88R
PEORIA         CLOUDY    60  59  96 S12       29.82R
LACON*         CLOUDY    56  56 100 NW8       29.82R
LINCOLN*       CLOUDY    63  60  93 S14G20    29.84S
SPRINGFIELD    CLOUDY    63  62  97 S16       29.84F
TAYLORVILLE    CLOUDY    64  57  80 S21G26    29.88R
$$

ILZ033-039-045-046-055>057-062-063-201200-
EAST-CENTRAL ILLINOIS

CITY           SKY/WX    TMP DP  RH WIND       PRES   REMARKS
CHAMPAIGN      MOCLDY    62  58  86 S26G36    29.88R
DANVILLE*      CLOUDY    64  59  83 S26G33    29.87S
RANTOUL*       CLOUDY    64  61  89 S23G31    29.87R
MATTOON        FAIR      63  58  83 S17G28    29.91R
PARIS*         MOCLDY    63  59  88 S22G28    29.94R
$$

ILZ079-100>102-201200-
SOUTHWEST ILLINOIS

CITY           SKY/WX    TMP DP  RH WIND       PRES   REMARKS
ALTON          CLOUDY    65  58  78 S20G25    29.88S
BELLEVILLE     MOCLDY    67  57  70 SW20G33   29.89R
CAHOKIA*         N/A    N/A N/A N/A MISG      29.88R
SPARTA*        CLOUDY    67  60  80 S17G30    29.95R
$$

ILZ064>066-069>071-074>076-080>082-084>086-088>090-092>094-201200-
SOUTH-CENTRAL ILLINOIS

CITY           SKY/WX    TMP DP  RH WIND       PRES   REMARKS
CARBONDALE     MOCLDY    67  61  81 S24G35    29.98S
CAIRO*         CLOUDY    65  60  84 S10       30.04R
EFFINGHAM*     FAIR      67  61  81 S15G26    29.94S
MARION         MOCLDY    65  64  98 S17       30.01S
MT. VERNON     MOCLDY    67  60  78 S17G31    29.98R
CENTRALIA*     CLOUDY    69  61  76 S24G36    29.93S
SALEM*         FAIR      69  59  70 S24G32    29.93F
METROPOLIS*    CLOUDY    68  61  76 S10G20    30.06R
$$

ILZ067-068-072-073-078-083-087-091-201200-
SOUTHEAST ILLINOIS

CITY           SKY/WX    TMP DP  RH WIND       PRES   REMARKS
LAWRENCEVILLE  FAIR      64  58  80 S20       30.00S
FLORA*         FAIR      67  61  79 S16G26    29.98R
FAIRFIELD*     CLOUDY    65  60  84 S10       29.99S
HARRISBURG*    CLOUDY    69  61  77 S21G26    30.03R
ROBINSON*      FAIR      64  58  83 S18G24    29.99R
CARMI*         CLOUDY    65  59  81 S16       30.03R
$$

ABBREVIATIONS USED IN REMARKS
   TC - TEMPERATURE IN CELSIUS
  WCI - WIND CHILL INDEX
   HX - HEAT INDEX
  VSB - VISIBILITY
$$





USA.gov is the U.S. government's official web portal to all federal, state and local government web resources and services.